{"data":{"norad_id":61662,"epoch":"2026-05-25T03:18:30.515616Z","epoch_age_seconds":56351,"freshness":"FRESH","line1":"1 61662U 24193B   26145.13785319 -.00000167  00000+0  63692-5 0  9990","line2":"2 61662  53.1614  95.7426 0001254  81.6439 278.4704 15.31702379 88230","mean_motion":15.31702379,"eccentricity":0.0001254,"inclination_deg":53.1614,"raan_deg":95.7426,"arg_perigee_deg":81.6439,"mean_anomaly_deg":278.4704,"bstar":6.3692e-6,"rev_number":8823,"period_min":94.013041942269,"perigee_km":469.87405527371,"apogee_km":471.59175184553,"semimajor_km":6848.8699035596,"source":"CELESTRAK","updated_at":"2026-05-25T13:38:19.411855Z"}}